Вернуться в каталог

NUSANTARA TIGA

АктивенСвязьGEO
NORAD 57045·PAYLOAD·🇮🇩 Indonesia

Запущен Jun 18, 2023 с Cape Canaveral Space Force Station

Loading…

TLE

СвежийSource: Space-Track

Эпоха: Sep 14, 2026, 21:20 UTC

1 57045U 23086A   26257.88915394 -.00000242  00000-0  00000-0 0  9998
2 57045   0.0558 358.9386 0002710 289.6904 171.3365  1.00271474 10666

Отслеживайте NUSANTARA TIGA в реальном времени с AllMySat

Download on the App Store